Flag for India Weather past 2 weeks in Yavatmal, Maharashtra, India

Now
73 °F

Haze.


Feels Like: 76 °F
Forecast: 65 / 82 °F
Wind: No wind

Location: Nagpur Sonegaon

Current Time: Jan 28, 2015 at 8:01:57 PM

Latest Report: Jan 28, 2015 at 6:40 PM


Visibility: 2 mi

Pressure: 29.92 "Hg

Humidity: 65%

Dew point: 61 °F

Location of YavatmalLocation

Historic Weather in Yavatmal — Graph

°F

Yavatmal temperature yesterday

Maximum temperature yesterday: 86 °F (at 1:40 PM)
Minimum temperature yesterday: 55 °F (at 5:40 AM)
Average temperature yesterday: 70 °F

Past Weeks' High & Low Weather Summary

 TemperatureHumidityPressure
High86 °F (Jan 25, 2:40 PM)88% (Jan 25, 7:40 AM)30.18 "Hg (Jan 25, 7:40 AM)
Low48 °F (Jan 20, 5:40 AM)21% (Jan 20, 2:40 PM)29.89 "Hg (Jan 28, 3:40 PM)
Average69 °F55%30.03 "Hg
* Reported Jan 13 6:40 PM — Jan 28 6:40 PM, Yavatmal, Weather by CustomWeather, © 2014

Note: Actual official high and low records may vary slightly from our data, if they occured in-between our weather recording intervals... More about our weather records

Advertising

Yavatmal weather history for previous 24 hours

 ConditionsComfort  
Time TempWeatherWind HumidityBarometerVisibility
6:40 PM
Jan 28
73 °FHaze.No wind65%29.92 "Hg2 mi
5:40 PM79 °FHaze.3 mph45%29.92 "Hg2 mi
4:40 PM82 °FHaze.6 mph40%29.89 "Hg2 mi
3:40 PM84 °FHaze.6 mph37%29.89 "Hg2 mi
2:40 PM82 °FHaze.7 mph42%29.92 "Hg2 mi
1:40 PM81 °FHaze.3 mph48%29.95 "Hg2 mi
12:40 PM77 °FHaze.2 mph54%29.98 "Hg2 mi
11:40 AM77 °FHaze.5 mph54%30.04 "Hg1 mi
10:40 AM72 °FHaze.5 mph61%30.07 "Hg1 mi
9:40 AM68 °FHaze.3 mph56%30.07 "Hg1 mi
8:40 AM64 °FHaze.2 mph60%30.07 "Hg1 mi
6:40 AM59 °FFog.3 mph88%30.01 "Hg1 mi
4:40 AM61 °FHaze.2 mph77%29.95 "Hg2 mi
3:40 AM63 °FHaze.3 mph77%29.95 "Hg2 mi
2:40 AM64 °FHaze.3 mph56%29.95 "Hg2 mi
1:40 AM64 °FHaze.6 mph73%29.98 "Hg2 mi
12:40 AM66 °FHaze.5 mph68%30.01 "Hg2 mi
11:40 PM
Jan 27
70 °FHaze.2 mph53%30.01 "Hg2 mi
10:40 PM68 °FPassing clouds.No wind56%30.01 "Hg2 mi
9:40 PM70 °FHaze.No wind60%30.01 "Hg2 mi
8:40 PM73 °FHaze.3 mph61%29.98 "Hg3 mi
Weather by CustomWeather, © 2014

See weather overviewHow to use our weather pages